{"data":{"norad_id":64463,"intl_designator":"2025-130AB","name":"STARLINK-34400","alt_names":[],"object_type":"PAYLOAD","status":"ACTIVE","operator":null,"country":"US","launch_date":"2025-06-18","launch_site_code":"AFETR","launch_vehicle":null,"mission":null,"orbit_class":"UNKNOWN","rcs_meters":null,"size_class":null,"mass_kg":null,"dimensions":null,"purposes":["comms"],"wikipedia_slug":null,"has_3d_model":false,"image_url":null,"decayed_at":null,"tle_current":{"epoch":"2026-09-20T23:34:50.946240Z","epoch_age_seconds":89875,"freshness":"FRESH","line1":"1 64463U 25130AB  26263.98253410  .00013336  00000+0  44060-3 0  9997","line2":"2 64463  53.1590 262.8128 0001475  74.3317 285.7847 15.31710498 70589","mean_motion":15.31710498,"eccentricity":0.0001475,"inclination_deg":53.159,"raan_deg":262.8128,"arg_perigee_deg":74.3317,"mean_anomaly_deg":285.7847,"bstar":0.0004406,"rev_number":7058,"period_min":94.012543615798,"perigee_km":469.6984966717,"apogee_km":471.71890615361,"semimajor_km":6848.8457014127,"source":"CELESTRAK","updated_at":"2026-09-21T09:00:35.357247Z"}}}